Regional Weather Roundup
Issued by NWS

Home | Current Version | Previous Version | Graphics & Text | Print | Product List | Glossary On
Versions: 1 2 3 4 5 6 7 8 9 10 11 12 13 14 15 16 17 18 19 20 21 22 23 24 25 26 27 28 29 30 31 32 33 34 35 36 37 38 39 40 41 42 43 44 45 46 47 48 49 50
000
ASUS43 KOAX 201502
RWRNE

WEATHER ROUNDUP FOR NEBRASKA
NATIONAL WEATHER SERVICE OMAHA NE
900 AM CST SAT JAN 20 2018

NOTES: SATELLITE DATA IS BEING USED TO AUGMENT CLOUD COVER ABOVE
       12000 FEET.
       "FAIR" INDICATES FEW OR NO CLOUDS BELOW 12,000 FEET WITH NO
       SIGNIFICANT WEATHER AND/OR OBSTRUCTIONS TO VISIBILITY.


NEZ001>004-019>022-054>056-201600-
NEBRASKA PANHANDLE

CITY           SKY/WX    TMP DP  RH WIND       PRES   REMARKS
SCOTTSBLUFF    CLOUDY    27  24  89 W9        29.84R WCI  18
ALLIANCE       CLOUDY    28  27  96 N9        29.83R WCI  19
CHADRON        CLOUDY    28  27  96 CALM      29.89R
GORDON         FAIR      31  29  93 N3        29.86R
KIMBALL        PTCLDY    34  27  76 N10       29.80R WCI  26
SIDNEY         CLOUDY    27  25  92 NW7       29.80R WCI  19
$$

NEZ057>060-069>072-079>082-201600-
SOUTHWEST NEBRASKA

CITY           SKY/WX    TMP DP  RH WIND       PRES   REMARKS
NORTH PLATTE   CLOUDY    33  29  85 NE9       29.82R WCI  25
IMPERIAL       MOCLDY    30  28  92 N8        29.81R WCI  22
LEXINGTON      PTCLDY    32  29  89 N6        29.82R WCI  27
MCCOOK         PTCLDY    31  28  89 N10       29.78S WCI  22
OGALLALA       CLOUDY    29  27  92 CALM      29.82R
$$

NEZ005>010-023>029-035>040-094-201600-
NORTH CENTRAL NEBRASKA

CITY           SKY/WX    TMP DP  RH WIND       PRES   REMARKS
VALENTINE      MOCLDY    30  27  88 NW6       29.88R WCI  24
AINSWORTH      CLOUDY    30  30  98 NW6       29.85R WCI  24
BROKEN BOW     CLOUDY    34  30  85 N7        29.82R WCI  28
O`NEILL        CLOUDY    31  31  98 N3        29.85S
ORD            CLOUDY    35  31  85 N5        29.84R WCI  31
THEDFORD       CLOUDY    32  30  92 CALM      29.85R
$$

NEZ041-046>049-061>064-073>077-083>087-201600-
SOUTH CENTRAL NEBRASKA

CITY           SKY/WX    TMP DP  RH WIND       PRES   REMARKS
GRAND ISLAND   CLOUDY    30  29  96 NE7       29.82R WCI  23
AURORA         CLOUDY    30  28  94 NE7       29.81R WCI  23
HASTINGS       CLOUDY    31  27  85 NE9       29.80R WCI  23
HEBRON         CLOUDY    24  23  93 CALM      29.81S
HOLDREGE       CLOUDY    30  29  98 NE8       29.78F WCI  22
KEARNEY        CLOUDY    32  29  88 NE12      29.80S WCI  23
YORK           CLOUDY    28  28 100 NE7       29.83R WCI  21
$$

NEZ011>018-030>034-042>045-201600-
NORTHEAST NEBRASKA

CITY           SKY/WX    TMP DP  RH WIND       PRES   REMARKS
NORFOLK        CLOUDY    33  30  88 CALM      29.84R
ALBION         PTCLDY    36  32  85 N6        29.85R WCI  31
BLAIR          CLOUDY    32  30  92 N6        29.84R WCI  26
COLUMBUS       CLOUDY    30  29  96 CALM      29.86R
FREMONT        CLOUDY    28  28  97 CALM      29.85R
TEKAMAH        MOSUNNY   29  25  85 N7        29.87R WCI  22
WAYNE          PTCLDY    30  29  96 CALM      29.86R
$$

NEZ050>053-065>068-078-088>093-201600-
SOUTHEAST NEBRASKA

CITY           SKY/WX    TMP DP  RH WIND       PRES   REMARKS
LINCOLN        MOSUNNY   26  22  84 N5        29.85R WCI  20
OMAHA EPPLEY   CLOUDY    28  25  88 CALM      29.85R
BEATRICE       FOG       33  32  98 CALM      29.82S VSB 1/2
FALLS CITY     CLOUDY    37  34  89 E3        29.86R
NEBRASKA CITY  CLOUDY    31  30  96 CALM      29.85R
PLATTSMOUTH    CLOUDY    30  27  86 CALM      29.85R
$$

NEZ044-045-051>053-067-201600-
OMAHA AREA

CITY           SKY/WX    TMP DP  RH WIND       PRES   REMARKS
OMAHA EPPLEY   CLOUDY    28  25  88 CALM      29.85R
BLAIR          CLOUDY    32  30  92 N6        29.84R WCI  26
FREMONT        CLOUDY    28  28  97 CALM      29.85R
MILLARD        CLOUDY    29  26  89 CALM      29.85S
OFFUTT AFB     MOSUNNY   26  25  94 CALM      29.85R
PLATTSMOUTH    CLOUDY    30  27  86 CALM      29.85R
WAHOO          FAIR      30  28  92 N5        29.84R WCI  25
$$




USA.gov is the U.S. government's official web portal to all federal, state and local government web resources and services.